• In Hungary
  • List of Countries
  • For 7 days
  • Water Temperature
  • Satellite Maps
  • Weather Map
  • News
  • Weather Widgets
  • user-avatar
    Login

    Hourly Weather Neuquén

    Today, 19 November, Sunday

    Time Temperature Precipitation Wind Pressure Humidity
    00:00 +18°C° 0 mm 12 mps 729 mmHg 43%
    01:00 +17°C° 0 mm 11 mps 730 mmHg 46%
    02:00 +16°C° 0 mm 10 mps 730 mmHg 46%
    03:00 +14°C° 0 mm 10 mps 730 mmHg 45%
    04:00 +15°C° 0 mm 9 mps 730 mmHg 45%
    05:00 +15°C° 0 mm 9 mps 731 mmHg 39%
    06:00 +16°C° 0 mm 9 mps 731 mmHg 33%
    07:00 +17°C° 0 mm 8 mps 732 mmHg 27%
    08:00 +18°C° 0 mm 7 mps 732 mmHg 23%
    09:00 +20°C° 0 mm 6 mps 732 mmHg 18%
    10:00 +21°C° 0 mm 5 mps 731 mmHg 13%
    11:00 +22°C° 0 mm 5 mps 731 mmHg 12%
    12:00 +23°C° 0 mm 5 mps 730 mmHg 10%
    13:00 +25°C° 0 mm 5 mps 730 mmHg 9%
    14:00 +26°C° 0 mm 5 mps 729 mmHg 9%
    15:00 +26°C° 0 mm 6 mps 729 mmHg 9%
    16:00 +26°C° 0 mm 7 mps 728 mmHg 8%
    17:00 +26°C° 0 mm 7 mps 728 mmHg 10%
    18:00 +24°C° 0 mm 8 mps 728 mmHg 11%
    19:00 +23°C° 0 mm 8 mps 728 mmHg 12%
    20:00 +22°C° 0 mm 9 mps 729 mmHg 14%
    21:00 +19°C° 0 mm 10 mps 729 mmHg 16%
    22:00 +18°C° 0 mm 11 mps 729 mmHg 18%
    23:00 +17°C° 0 mm 10 mps 729 mmHg 20%

    Tomorrow, 20 November, Monday

    Time Temperature Precipitation Wind Pressure Humidity
    00:00 +16°C° 0 mm 10 mps 729 mmHg 21%
    01:00 +15°C° 0 mm 9 mps 730 mmHg 23%
    02:00 +13°C° 0 mm 8 mps 730 mmHg 24%
    03:00 +13°C° 0 mm 8 mps 730 mmHg 25%
    04:00 +12°C° 0 mm 7 mps 731 mmHg 26%
    05:00 +14°C° 0 mm 7 mps 731 mmHg 24%
    06:00 +15°C° 0 mm 6 mps 732 mmHg 21%
    07:00 +16°C° 0 mm 6 mps 733 mmHg 19%
    08:00 +17°C° 0 mm 5 mps 733 mmHg 16%
    09:00 +19°C° 0 mm 5 mps 733 mmHg 14%
    10:00 +20°C° 0 mm 4 mps 733 mmHg 11%
    11:00 +21°C° 0 mm 4 mps 733 mmHg 10%
    12:00 +22°C° 0 mm 4 mps 733 mmHg 9%
    13:00 +25°C° 0 mm 5 mps 732 mmHg 8%
    14:00 +25°C° 0 mm 5 mps 732 mmHg 8%
    15:00 +25°C° 0 mm 5 mps 732 mmHg 8%
    16:00 +26°C° 0 mm 5 mps 732 mmHg 8%
    17:00 +25°C° 0 mm 4 mps 732 mmHg 9%
    18:00 +24°C° 0 mm 3 mps 732 mmHg 10%
    19:00 +22°C° 0 mm 3 mps 732 mmHg 11%
    20:00 +21°C° 0 mm 2 mps 733 mmHg 13%
    21:00 +21°C° 0 mm 2 mps 733 mmHg 14%
    22:00 +20°C° 0 mm 2 mps 734 mmHg 15%
    23:00 +19°C° 0 mm 3 mps 734 mmHg 18%

    Day after tomorrow, 21 November, Tuesday

    Time Temperature Precipitation Wind Pressure Humidity
    00:00 +19°C° 0 mm 4 mps 734 mmHg 21%
    01:00 +17°C° 0 mm 5 mps 734 mmHg 23%
    02:00 +16°C° 0 mm 5 mps 734 mmHg 26%
    03:00 +17°C° 0 mm 4 mps 734 mmHg 29%
    04:00 +15°C° 0 mm 4 mps 734 mmHg 32%
    05:00 +16°C° 0 mm 5 mps 734 mmHg 30%
    06:00 +19°C° 0 mm 5 mps 734 mmHg 27%
    07:00 +20°C° 0 mm 6 mps 734 mmHg 25%
    08:00 +22°C° 0 mm 6 mps 734 mmHg 22%
    09:00 +23°C° 0 mm 7 mps 734 mmHg 18%
    10:00 +26°C° 0 mm 7 mps 734 mmHg 15%
    11:00 +27°C° 0 mm 7 mps 733 mmHg 14%
    12:00 +27°C° 0 mm 7 mps 733 mmHg 13%
    13:00 +28°C° 0 mm 7 mps 733 mmHg 12%
    14:00 +29°C° 0 mm 7 mps 732 mmHg 12%
    15:00 +29°C° 0 mm 7 mps 732 mmHg 12%
    16:00 +29°C° 0 mm 7 mps 731 mmHg 12%
    17:00 +28°C° 0 mm 6 mps 732 mmHg 13%
    18:00 +27°C° 0 mm 5 mps 732 mmHg 14%
    19:00 +26°C° 0 mm 4 mps 732 mmHg 15%
    20:00 +26°C° 0 mm 4 mps 732 mmHg 18%
    21:00 +25°C° 0 mm 4 mps 732 mmHg 20%
    22:00 +23°C° 0 mm 5 mps 733 mmHg 22%
    23:00 +22°C° 0 mm 5 mps 732 mmHg 26%

    22 November, Wednesday

    Time Temperature Precipitation Wind Pressure Humidity
    00:00 +21°C° 0 mm 5 mps 732 mmHg 30%
    01:00 +20°C° 0 mm 5 mps 732 mmHg 34%
    02:00 +20°C° 0 mm 5 mps 732 mmHg 35%
    03:00 +19°C° 0 mm 5 mps 732 mmHg 37%
    04:00 +19°C° 0 mm 5 mps 731 mmHg 38%
    05:00 +20°C° 0 mm 6 mps 732 mmHg 36%
    06:00 +21°C° 0 mm 6 mps 732 mmHg 33%
    07:00 +22°C° 0 mm 6 mps 732 mmHg 31%
    08:00 +24°C° 0 mm 6 mps 731 mmHg 28%
    09:00 +26°C° 0 mm 5 mps 731 mmHg 25%
    10:00 +27°C° 0 mm 5 mps 731 mmHg 22%
    11:00 +28°C° 0 mm 5 mps 730 mmHg 20%
    12:00 +29°C° 0 mm 6 mps 730 mmHg 17%
    13:00 +30°C° 0 mm 6 mps 729 mmHg 15%
    14:00 +32°C° 0 mm 6 mps 729 mmHg 13%
    15:00 +32°C° 0 mm 7 mps 729 mmHg 12%
    16:00 +32°C° 0 mm 7 mps 728 mmHg 11%
    17:00 +30°C° 0 mm 6 mps 728 mmHg 11%
    18:00 +29°C° 0 mm 6 mps 729 mmHg 11%
    19:00 +28°C° 0 mm 5 mps 729 mmHg 12%
    20:00 +27°C° 0 mm 5 mps 729 mmHg 14%
    21:00 +25°C° 0 mm 4 mps 730 mmHg 16%
    22:00 +23°C° 0 mm 4 mps 730 mmHg 17%
    23:00 +22°C° 0 mm 4 mps 730 mmHg 20%

    23 November, Thursday

    Time Temperature Precipitation Wind Pressure Humidity
    00:00 +21°C° 0 mm 4 mps 731 mmHg 23%
    01:00 +20°C° 0 mm 3 mps 731 mmHg 25%
    02:00 +19°C° 0 mm 3 mps 731 mmHg 27%
    03:00 +19°C° 0 mm 3 mps 731 mmHg 29%
    04:00 +18°C° 0 mm 3 mps 731 mmHg 30%
    05:00 +19°C° 0 mm 3 mps 731 mmHg 28%
    06:00 +21°C° 0 mm 3 mps 732 mmHg 26%
    07:00 +22°C° 0 mm 4 mps 732 mmHg 23%
    08:00 +23°C° 0 mm 4 mps 732 mmHg 21%
    09:00 +25°C° 0 mm 4 mps 732 mmHg 20%
    10:00 +26°C° 0 mm 4 mps 732 mmHg 18%
    11:00 +27°C° 0 mm 4 mps 732 mmHg 16%
    12:00 +28°C° 0 mm 3 mps 731 mmHg 15%
    13:00 +28°C° 0 mm 3 mps 731 mmHg 14%
    14:00 +29°C° 0 mm 3 mps 730 mmHg 13%
    15:00 +29°C° 0 mm 2 mps 730 mmHg 13%
    16:00 +29°C° 0 mm 2 mps 730 mmHg 12%
    17:00 +28°C° 0 mm 3 mps 730 mmHg 13%
    18:00 +28°C° 0 mm 3 mps 730 mmHg 13%
    19:00 +27°C° 0 mm 4 mps 730 mmHg 14%
    20:00 +26°C° 0 mm 4 mps 730 mmHg 18%
    21:00 +25°C° 0 mm 5 mps 730 mmHg 21%
    22:00 +23°C° 0 mm 6 mps 730 mmHg 25%
    23:00 +22°C° 0 mm 5 mps 730 mmHg 27%

    24 November, Friday

    Time Temperature Precipitation Wind Pressure Humidity
    00:00 +21°C° 0 mm 5 mps 729 mmHg 29%
    01:00 +21°C° 0 mm 4 mps 729 mmHg 32%
    02:00 +20°C° 0 mm 4 mps 729 mmHg 33%
    03:00 +20°C° 0 mm 3 mps 729 mmHg 34%
    04:00 +19°C° 0 mm 3 mps 729 mmHg 35%
    05:00 +21°C° 0 mm 3 mps 729 mmHg 32%
    06:00 +22°C° 0 mm 3 mps 730 mmHg 29%
    07:00 +24°C° 0 mm 3 mps 730 mmHg 27%
    08:00 +26°C° 0 mm 3 mps 730 mmHg 23%
    09:00 +27°C° 0 mm 4 mps 730 mmHg 19%
    10:00 +29°C° 0 mm 5 mps 730 mmHg 14%
    11:00 +30°C° 0 mm 5 mps 729 mmHg 13%
    12:00 +32°C° 0 mm 6 mps 729 mmHg 11%
    13:00 +33°C° 0 mm 6 mps 729 mmHg 9%
    14:00 +33°C° 0 mm 7 mps 728 mmHg 8%
    15:00 +34°C° 0 mm 7 mps 728 mmHg 8%
    16:00 +34°C° 0 mm 7 mps 728 mmHg 7%
    17:00 +33°C° 0 mm 7 mps 728 mmHg 9%
    18:00 +32°C° 0 mm 7 mps 729 mmHg 10%
    19:00 +29°C° 0 mm 8 mps 729 mmHg 11%
    20:00 +28°C° 0 mm 9 mps 729 mmHg 14%
    21:00 +26°C° 0 mm 10 mps 730 mmHg 16%
    22:00 +24°C° 0 mm 11 mps 730 mmHg 18%
    23:00 +23°C° 0 mm 11 mps 730 mmHg 20%
    Show more